TimeCDT,TemperatureF,Dew PointF,Humidity,Sea Level PressureIn,VisibilityMPH,Wind Direction,Wind SpeedMPH,Gust SpeedMPH,PrecipitationIn,Events,Conditions,WindDirDegrees,DateUTC
12:15 AM,49.8,43.3,78,29.96,10.0,WNW,5.8,-,N/A,,Mostly Cloudy,290,2013-10-07 05:15:00
12:35 AM,50.0,43.7,79,29.96,10.0,WNW,6.9,-,N/A,,Overcast,290,2013-10-07 05:35:00
12:55 AM,50.0,43.7,79,29.96,10.0,WNW,6.9,-,N/A,,Overcast,300,2013-10-07 05:55:00
1:15 AM,50.0,43.7,79,29.97,10.0,WNW,4.6,-,N/A,,Overcast,290,2013-10-07 06:15:00
1:35 AM,50.2,43.9,79,29.98,10.0,West,5.8,-,N/A,,Overcast,270,2013-10-07 06:35:00
1:55 AM,50.2,44.1,79,29.98,10.0,WNW,5.8,-,N/A,,Overcast,290,2013-10-07 06:55:00
2:15 AM,50.2,44.2,80,29.98,10.0,WNW,4.6,-,N/A,,Overcast,290,2013-10-07 07:15:00
2:35 AM,50.2,44.4,81,29.98,10.0,WNW,4.6,-,N/A,,Overcast,290,2013-10-07 07:35:00
2:55 AM,50.2,44.6,81,29.98,10.0,WNW,5.8,-,N/A,,Overcast,290,2013-10-07 07:55:00
3:15 AM,50.0,44.6,82,29.98,10.0,West,4.6,-,N/A,,Overcast,270,2013-10-07 08:15:00
3:35 AM,50.0,44.8,82,29.99,10.0,WNW,4.6,-,N/A,,Overcast,300,2013-10-07 08:35:00
3:55 AM,50.0,45.0,83,29.99,10.0,WNW,3.5,-,N/A,,Overcast,290,2013-10-07 08:55:00
4:15 AM,50.0,45.1,83,30.00,10.0,WNW,4.6,-,N/A,,Overcast,290,2013-10-07 09:15:00
4:35 AM,49.8,45.5,85,30.00,10.0,West,4.6,-,N/A,,Overcast,280,2013-10-07 09:35:00
4:55 AM,49.8,45.5,85,30.01,10.0,West,4.6,-,N/A,,Overcast,270,2013-10-07 09:55:00
5:15 AM,50.0,45.7,85,30.01,10.0,West,3.5,-,N/A,,Overcast,280,2013-10-07 10:15:00
5:35 AM,48.9,45.9,89,30.02,10.0,West,4.6,-,N/A,,Scattered Clouds,280,2013-10-07 10:35:00
5:55 AM,48.2,46.4,93,30.03,10.0,Calm,Calm,-,N/A,,Scattered Clouds,0,2013-10-07 10:55:00
6:15 AM,47.3,46.0,95,30.03,10.0,West,4.6,-,N/A,,Clear,260,2013-10-07 11:15:00
6:35 AM,46.8,45.7,96,30.04,10.0,WSW,3.5,-,N/A,,Clear,250,2013-10-07 11:35:00
6:55 AM,46.0,45.3,97,30.05,10.0,Calm,Calm,-,N/A,,Clear,0,2013-10-07 11:55:00
7:15 AM,45.5,45.0,98,30.06,10.0,Calm,Calm,-,N/A,,Clear,0,2013-10-07 12:15:00
7:35 AM,45.1,44.8,99,30.07,10.0,Calm,Calm,-,N/A,,Clear,0,2013-10-07 12:35:00
7:55 AM,45.5,45.1,99,30.08,10.0,WSW,4.6,-,N/A,,Clear,250,2013-10-07 12:55:00
8:15 AM,46.8,45.5,95,30.08,10.0,West,5.8,-,N/A,,Clear,270,2013-10-07 13:15:00
8:35 AM,48.2,45.5,90,30.10,10.0,West,6.9,-,N/A,,Clear,280,2013-10-07 13:35:00
8:55 AM,49.6,45.7,86,30.11,10.0,West,6.9,-,N/A,,Clear,280,2013-10-07 13:55:00
9:15 AM,50.9,44.6,79,30.11,10.0,WNW,6.9,-,N/A,,Clear,290,2013-10-07 14:15:00
9:35 AM,52.2,43.7,73,30.11,10.0,WNW,4.6,-,N/A,,Clear,290,2013-10-07 14:35:00
9:55 AM,53.2,43.7,70,30.11,10.0,WNW,3.5,-,N/A,,Clear,290,2013-10-07 14:55:00
10:15 AM,54.9,44.1,67,30.12,10.0,WNW,4.6,-,N/A,,Clear,290,2013-10-07 15:15:00
10:35 AM,55.9,44.1,64,30.13,10.0,WNW,5.8,-,N/A,,Clear,300,2013-10-07 15:35:00
10:55 AM,57.0,44.1,62,30.13,10.0,West,4.6,-,N/A,,Clear,260,2013-10-07 15:55:00
11:15 AM,58.3,44.2,60,30.14,10.0,NNW,3.5,-,N/A,,Clear,330,2013-10-07 16:15:00
11:35 AM,59.4,43.9,57,30.14,10.0,West,3.5,-,N/A,,Clear,270,2013-10-07 16:35:00
11:55 AM,60.3,43.3,54,30.14,10.0,Calm,Calm,-,N/A,,Clear,0,2013-10-07 16:55:00
12:15 PM,62.1,43.5,51,30.13,10.0,NW,5.8,-,N/A,,Clear,310,2013-10-07 17:15:00
12:35 PM,63.0,41.9,46,30.13,10.0,Calm,Calm,-,N/A,,Clear,0,2013-10-07 17:35:00
12:55 PM,63.9,42.6,46,30.12,10.0,NNW,3.5,-,N/A,,Clear,330,2013-10-07 17:55:00
1:15 PM,64.9,42.3,44,30.12,10.0,West,5.8,-,N/A,,Clear,260,2013-10-07 18:15:00
1:35 PM,66.2,41.7,41,30.11,10.0,NW,3.5,-,N/A,,Clear,320,2013-10-07 18:35:00
1:55 PM,66.9,42.1,40,30.10,10.0,NW,3.5,-,N/A,,Clear,310,2013-10-07 18:55:00
2:15 PM,67.5,41.7,39,30.10,10.0,Calm,Calm,-,N/A,,Clear,0,2013-10-07 19:15:00
2:35 PM,68.2,42.4,39,30.10,10.0,Calm,Calm,-,N/A,,Clear,0,2013-10-07 19:35:00
2:55 PM,68.9,41.2,36,30.10,10.0,West,5.8,-,N/A,,Clear,280,2013-10-07 19:55:00
3:15 PM,69.3,41.2,36,30.09,10.0,Calm,Calm,-,N/A,,Clear,0,2013-10-07 20:15:00
3:35 PM,70.2,39.9,33,30.09,10.0,West,6.9,-,N/A,,Clear,260,2013-10-07 20:35:00
3:55 PM,70.5,39.7,33,30.08,10.0,WNW,6.9,-,N/A,,Clear,290,2013-10-07 20:55:00
4:15 PM,70.3,39.7,33,30.08,10.0,West,5.8,-,N/A,,Clear,260,2013-10-07 21:15:00
4:35 PM,70.7,39.7,32,30.08,10.0,Calm,Calm,-,N/A,,Clear,0,2013-10-07 21:35:00
4:55 PM,70.7,39.6,32,30.07,10.0,West,3.5,-,N/A,,Clear,260,2013-10-07 21:55:00
5:15 PM,70.7,40.5,33,30.08,10.0,South,3.5,-,N/A,,Clear,180,2013-10-07 22:15:00
5:35 PM,70.0,41.7,36,30.08,10.0,Calm,Calm,-,N/A,,Clear,0,2013-10-07 22:35:00
5:55 PM,69.4,41.2,36,30.08,10.0,Calm,Calm,-,N/A,,Clear,0,2013-10-07 22:55:00
6:15 PM,68.5,42.1,38,30.08,10.0,Calm,Calm,-,N/A,,Clear,0,2013-10-07 23:15:00
6:35 PM,67.3,43.5,42,30.08,10.0,Calm,Calm,-,N/A,,Clear,0,2013-10-07 23:35:00
6:55 PM,65.1,44.8,48,30.08,10.0,Calm,Calm,-,N/A,,Clear,0,2013-10-07 23:55:00
7:15 PM,63.0,45.9,54,30.09,10.0,South,3.5,-,N/A,,Clear,170,2013-10-08 00:15:00
7:35 PM,60.6,47.1,61,30.09,10.0,South,3.5,-,N/A,,Clear,170,2013-10-08 00:35:00
7:55 PM,59.2,47.5,65,30.10,10.0,South,3.5,-,N/A,,Clear,170,2013-10-08 00:55:00
8:15 PM,58.6,47.5,66,30.10,10.0,South,3.5,-,N/A,,Clear,170,2013-10-08 01:15:00
8:35 PM,57.7,47.3,68,30.11,10.0,Calm,Calm,-,N/A,,Clear,0,2013-10-08 01:35:00
8:55 PM,57.9,46.4,65,30.11,10.0,Calm,Calm,-,N/A,,Clear,0,2013-10-08 01:55:00
9:15 PM,57.6,46.4,66,30.12,10.0,Calm,Calm,-,N/A,,Clear,0,2013-10-08 02:15:00
9:35 PM,56.3,46.4,69,30.12,10.0,Calm,Calm,-,N/A,,Clear,0,2013-10-08 02:35:00
9:55 PM,55.6,46.4,71,30.12,10.0,Calm,Calm,-,N/A,,Clear,0,2013-10-08 02:55:00
10:15 PM,55.6,46.6,72,30.13,10.0,Calm,Calm,-,N/A,,Clear,0,2013-10-08 03:15:00
10:35 PM,54.5,46.6,75,30.13,10.0,Calm,Calm,-,N/A,,Clear,0,2013-10-08 03:35:00
10:55 PM,54.1,46.8,76,30.13,10.0,Calm,Calm,-,N/A,,Clear,0,2013-10-08 03:55:00
11:15 PM,54.3,46.6,75,30.13,10.0,South,3.5,-,N/A,,Clear,170,2013-10-08 04:15:00
11:35 PM,53.2,46.6,78,30.13,10.0,Calm,Calm,-,N/A,,Clear,0,2013-10-08 04:35:00
11:55 PM,52.9,46.6,79,30.13,10.0,South,3.5,-,N/A,,Clear,180,2013-10-08 04:55:00